This is the latest recevied weather packets stored in our database for station/object WB3IGR. If no packets are shown the sender has not sent any weather packets the latest 10 day(s).
| Time | Temp. | Humidity | Pressure | Rain* | Wind** | Luminosity | Snow |
|---|---|---|---|---|---|---|---|
| 1777972511 | 13.33° C | 78% | 1011.5 hPa | 0 mm | - | 0 W/m² | - |
| 1777972209 | 13.89° C | 77% | 1011.6 hPa | 0 mm | - | 0 W/m² | - |
| 1777971907 | 13.33° C | 78% | 1011.3 hPa | 0 mm | - | 0 W/m² | - |
| 1777971604 | 13.33° C | 78% | 1011.5 hPa | 0 mm | - | 0 W/m² | - |
| 1777971303 | 13.33° C | 78% | 1011.5 hPa | 0 mm | - | 0 W/m² | - |
| 1777971000 | 13.89° C | 76% | 1011.5 hPa | 0 mm | - | 0 W/m² | - |
| 1777970698 | 13.89° C | 76% | 1011.4 hPa | 0 mm | - | 0 W/m² | - |
| 1777970396 | 13.89° C | 76% | 1011.5 hPa | 0 mm | - | 0 W/m² | - |
| 1777970093 | 13.89° C | 76% | 1011.4 hPa | 0 mm | - | 0 W/m² | - |
| 1777969789 | 14.44° C | 75% | 1011.4 hPa | 0 mm | - | 0 W/m² | - |
| 1777969485 | 15° C | 73% | 1011.4 hPa | 0 mm | - | 0 W/m² | - |
| 1777969182 | 15° C | 73% | 1011.2 hPa | 0 mm | - | 0 W/m² | - |
| 1777968879 | 15° C | 73% | 1011.2 hPa | 0 mm | - | 0 W/m² | - |
| 1777968575 | 15° C | 72% | 1011.3 hPa | 0 mm | - | 0 W/m² | - |
| 1777968271 | 15.56° C | 71% | 1011.4 hPa | 0 mm | - | 0 W/m² | - |
| 1777967967 | 15.56° C | 71% | 1011.5 hPa | 0 mm | - | 0 W/m² | - |
| 1777967664 | 15.56° C | 71% | 1011.3 hPa | 0 mm | - | 0 W/m² | - |
| 1777967361 | 15.56° C | 70% | 1011.2 hPa | 0 mm | - | 0 W/m² | - |
| 1777967059 | 16.11° C | 68% | 1011.3 hPa | 0 mm | - | 0 W/m² | - |
| 1777966755 | 16.67° C | 67% | 1011.1 hPa | 0 mm | - | 0 W/m² | - |
| 1777966453 | 17.22° C | 65% | 1011.1 hPa | 0 mm | - | 0 W/m² | - |
| 1777966150 | 17.78° C | 63% | 1011 hPa | 0 mm | - | 0 W/m² | - |
| 1777965846 | 18.33° C | 62% | 1010.8 hPa | 0 mm | - | 0 W/m² | - |
| 1777965543 | 17.78° C | 62% | 1011 hPa | 0 mm | - | 0 W/m² | - |
| 1777965239 | 17.22° C | 63% | 1011.2 hPa | 0 mm | - | 0 W/m² | - |
* Rain latest hour (hover to see other rain measurements)
** Current wind speed in m/s (hover to see current wind gust speed)